Olbia, Italy

1:30 AM CEST on August 31, 2016 (GMT +0200)
Olbia

Weather History for 16531 - August, 2013

Change the Weather History Date:

Sunday, August 25, 2013

  Actual Average Record
Temperature  
Mean Temperature 78 °F -  
Max Temperature 86 °F 80 °F - ()
Min Temperature 69 °F 60 °F - ()
Cooling Degree Days 12    
Growing Degree Days 28 (Base 50)    
Moisture  
Dew Point 57 °F    
Average Humidity 53    
Maximum Humidity 83    
Minimum Humidity 22    
Precipitation  
Precipitation 0.00 in 0.05 in - ()
Sea Level Pressure  
Sea Level Pressure 29.85 in    
Wind  
Wind Speed 11 mph ()    
Max Wind Speed 24 mph    
Max Gust Speed 36 mph    
Visibility 6.2 miles    
Events      
T = Trace of Precipitation, MM = Missing Value Source: Averaged Metar Reports

Daily Weather History Graph

Daily Weather History Graph

Search for Another Location

Airport or City:

Trip Planner

Search our weather history database for the weather conditions in past years. The results will help you decide how hot, cold, wet, or windy it might be!

Date:

Astronomy

Aug. 25, 2013 Rise Set
Actual Time 6:41 AM CEST 8:05 PM CEST
Civil Twilight 6:13 AM CEST 8:34 PM CEST
Nautical Twilight 5:38 AM CEST 9:08 PM CEST
Astronomical Twilight 5:02 AM CEST 9:44 PM CEST
Moon 10:23 PM CEST (8/25) 11:29 AM CEST (8/25)
Length of Visible Light 14h 20m
Length of Day
13h 23m
Waning Gibbous, 78% of the Moon is Illuminated
Aug 25
Waning Gibbous
Aug 28
Last Quarter
Sep 5
New
Sep 12
First Quarter
Sep 19
Full

Hourly Weather History & Observations

Time (CEST) Temp. Heat Index Dew Point Humidity Pressure Visibility Wind Dir Wind Speed Gust Speed Precip Events Conditions
12:20 AM 75.2 °F - 62.6 °F 65% 29.89 in 6.2 mi West 4.6 mph - N/A   Partly Cloudy
12:50 AM 73.4 °F - 64.4 °F 73% 29.89 in 6.2 mi WSW 5.8 mph - N/A   Scattered Clouds
1:20 AM 75.2 °F - 64.4 °F 69% 29.89 in 6.2 mi WSW 9.2 mph - N/A   Scattered Clouds
1:50 AM 71.6 °F - 64.4 °F 78% 29.89 in 6.2 mi SW 5.8 mph - N/A   Partly Cloudy
2:20 AM 71.6 °F - 64.4 °F 78% 29.89 in 6.2 mi SW 8.1 mph - N/A   Partly Cloudy
2:50 AM 73.4 °F - 64.4 °F 73% 29.89 in - WSW 13.8 mph - N/A   Clear
3:20 AM 71.6 °F - 64.4 °F 78% 29.89 in - SSW 8.1 mph - N/A   Clear
3:50 AM 69.8 °F - 64.4 °F 83% 29.86 in - SSW 9.2 mph - N/A   Clear
4:20 AM 71.6 °F - 64.4 °F 78% 29.86 in - SSW 9.2 mph - N/A   Clear
4:50 AM 69.8 °F - 64.4 °F 83% 29.86 in - SSW 5.8 mph - N/A   Clear
5:20 AM 69.8 °F - 64.4 °F 83% 29.86 in - SSW 6.9 mph - N/A   Clear
5:50 AM 71.6 °F - 64.4 °F 78% 29.86 in - SW 13.8 mph - N/A   Clear
6:20 AM 71.6 °F - 64.4 °F 78% 29.83 in 6.2 mi WSW 16.1 mph - N/A   Partly Cloudy
6:50 AM 71.6 °F - 64.4 °F 78% 29.86 in 6.2 mi WSW 13.8 mph - N/A   Partly Cloudy
7:20 AM 73.4 °F - 64.4 °F 73% 29.83 in 6.2 mi WSW 12.7 mph - N/A   Partly Cloudy
7:50 AM 73.4 °F - 64.4 °F 73% 29.83 in 6.2 mi SW 16.1 mph - N/A   Partly Cloudy
8:20 AM 75.2 °F - 64.4 °F 69% 29.83 in 6.2 mi SW 17.3 mph - N/A   Partly Cloudy
8:50 AM 77.0 °F - 64.4 °F 65% 29.83 in 6.2 mi SW 18.4 mph - N/A   Partly Cloudy
9:50 AM 80.6 °F 82.3 °F 64.4 °F 58% 29.83 in 6.2 mi SW 17.3 mph - N/A   Partly Cloudy
10:20 AM 82.4 °F 83.9 °F 64.4 °F 54% 29.83 in 6.2 mi SW 13.8 mph - N/A   Partly Cloudy
10:50 AM 84.2 °F 83.5 °F 57.2 °F 40% 29.83 in 6.2 mi WSW 17.3 mph - N/A   Partly Cloudy
11:20 AM 86.0 °F 84.5 °F 55.4 °F 35% 29.83 in 6.2 mi WSW 21.9 mph - N/A   Partly Cloudy
11:50 AM 86.0 °F 84.9 °F 57.2 °F 37% 29.80 in 6.2 mi WSW 24.2 mph 35.7 mph N/A   Partly Cloudy
12:20 PM 84.2 °F 83.0 °F 55.4 °F 37% 29.83 in 6.2 mi WSW 20.7 mph - N/A   Partly Cloudy
12:50 PM 84.2 °F 82.8 °F 53.6 °F 35% 29.83 in 6.2 mi West 17.3 mph - N/A   Partly Cloudy
1:20 PM 86.0 °F - 51.8 °F 31% 29.83 in 6.2 mi West 17.3 mph - N/A   Partly Cloudy
1:50 PM 86.0 °F - 51.8 °F 31% 29.83 in - West 17.3 mph - N/A   Clear
2:20 PM 84.2 °F - 50.0 °F 30% 29.83 in - West 18.4 mph - N/A   Clear
2:50 PM 84.2 °F - 50.0 °F 30% 29.83 in - WSW 17.3 mph 28.8 mph N/A   Clear
3:20 PM 82.4 °F - 50.0 °F 32% 29.83 in - West 17.3 mph - N/A   Clear
3:50 PM 84.2 °F - 46.4 °F 27% 29.83 in - West 18.4 mph - N/A   Clear
4:20 PM 84.2 °F - 42.8 °F 23% 29.83 in - West 18.4 mph - N/A   Clear
4:50 PM 86.0 °F - 42.8 °F 22% 29.83 in - West 18.4 mph - N/A   Clear
5:20 PM 84.2 °F - 46.4 °F 27% 29.83 in - WSW 19.6 mph - N/A   Clear
5:50 PM 82.4 °F - 50.0 °F 32% 29.83 in - West 18.4 mph - N/A   Clear
6:20 PM 82.4 °F - 51.8 °F 35% 29.83 in - WSW 18.4 mph - N/A   Clear
6:50 PM 80.6 °F 80.3 °F 53.6 °F 39% 29.83 in - West 16.1 mph - N/A   Clear
7:20 PM 80.6 °F 80.3 °F 53.6 °F 39% 29.83 in - WSW 15.0 mph - N/A   Clear
7:50 PM 78.8 °F - 53.6 °F 42% 29.83 in - WSW 16.1 mph - N/A   Clear
8:20 PM 77.0 °F - 53.6 °F 44% 29.83 in - WSW 17.3 mph - N/A   Clear
8:50 PM 77.0 °F - 53.6 °F 44% 29.83 in - WSW 12.7 mph - N/A   Clear
9:20 PM 75.2 °F - 53.6 °F 47% 29.86 in - WSW 5.8 mph - N/A   Clear
9:50 PM 73.4 °F - 53.6 °F 50% 29.86 in - SSW 5.8 mph - N/A   Clear
10:20 PM 73.4 °F - 55.4 °F 53% 29.86 in - SSW 5.8 mph - N/A   Clear
10:50 PM 73.4 °F - 55.4 °F 53% 29.86 in 6.2 mi SSW 8.1 mph - N/A   Partly Cloudy
11:20 PM 73.4 °F - 55.4 °F 53% 29.86 in 6.2 mi SW 10.4 mph - N/A   Partly Cloudy
11:50 PM 71.6 °F - 55.4 °F 57% 29.86 in 6.2 mi SW 10.4 mph - N/A   Partly Cloudy